TimeMST,TemperatureF,Dew PointF,Humidity,Sea Level PressureIn,VisibilityMPH,Wind Direction,Wind SpeedMPH,Gust SpeedMPH,PrecipitationIn,Events,Conditions,WindDirDegrees,DateUTC
12:55 AM,15.4,10.0,79,30.34,10.0,NNW,20.7,29.9,N/A,,Clear,330,2013-03-05 07:55:00
1:55 AM,15.3,9.0,76,30.37,10.0,North,16.1,-,N/A,,Clear,350,2013-03-05 08:55:00
2:55 AM,14.9,7.7,73,30.38,10.0,North,17.3,-,N/A,,Clear,350,2013-03-05 09:55:00
3:55 AM,14.5,6.8,71,30.42,10.0,North,6.9,-,N/A,,Clear,10,2013-03-05 10:55:00
4:55 AM,11.7,5.5,76,30.44,10.0,North,12.7,-,N/A,,Clear,360,2013-03-05 11:55:00
5:55 AM,9.7,4.8,81,30.46,10.0,NNE,8.1,-,N/A,,Clear,20,2013-03-05 12:55:00
6:55 AM,10.2,5.0,79,30.47,10.0,NNW,6.9,-,N/A,,Clear,340,2013-03-05 13:55:00
7:55 AM,11.8,5.7,76,30.49,10.0,North,11.5,-,N/A,,Clear,350,2013-03-05 14:55:00
8:55 AM,15.4,7.5,71,30.49,10.0,North,11.5,-,N/A,,Clear,350,2013-03-05 15:55:00
9:55 AM,19.4,10.6,69,30.47,10.0,North,15.0,-,N/A,,Clear,360,2013-03-05 16:55:00
10:55 AM,23.5,12.9,64,30.46,10.0,North,13.8,-,N/A,,Clear,360,2013-03-05 17:55:00
11:55 AM,25.7,13.1,59,30.45,10.0,North,12.7,-,N/A,,Partly Cloudy,350,2013-03-05 18:55:00
12:55 PM,27.7,12.7,54,30.43,10.0,NNE,8.1,-,N/A,,Partly Cloudy,20,2013-03-05 19:55:00
1:55 PM,28.8,12.6,51,30.41,10.0,North,4.6,-,N/A,,Clear,10,2013-03-05 20:55:00
2:55 PM,30.6,12.4,47,30.40,10.0,NE,6.9,-,N/A,,Clear,40,2013-03-05 21:55:00
3:55 PM,30.2,12.2,47,30.38,10.0,ENE,6.9,-,N/A,,Clear,60,2013-03-05 22:55:00
4:55 PM,28.4,11.7,50,30.40,10.0,East,8.1,-,N/A,,Scattered Clouds,90,2013-03-05 23:55:00
5:55 PM,25.3,10.9,54,30.39,10.0,ESE,6.9,-,N/A,,Scattered Clouds,110,2013-03-06 00:55:00
6:55 PM,22.5,10.0,59,30.40,10.0,SE,6.9,-,N/A,,Clear,130,2013-03-06 01:55:00
7:55 PM,20.3,9.1,62,30.40,10.0,SSE,6.9,-,N/A,,Clear,160,2013-03-06 02:55:00
8:55 PM,18.1,9.0,67,30.39,10.0,SSE,8.1,-,N/A,,Clear,160,2013-03-06 03:55:00
9:55 PM,16.7,8.4,70,30.38,10.0,South,10.4,-,N/A,,Clear,170,2013-03-06 04:55:00
10:55 PM,15.3,8.8,76,30.35,10.0,SSE,12.7,-,N/A,,Clear,160,2013-03-06 05:55:00
11:55 PM,14.2,8.4,78,30.33,10.0,SSE,15.0,-,N/A,,Clear,160,2013-03-06 06:55:00